Regional Weather Roundup
Issued by NWS

Home | Current Version | Previous Version | Graphics & Text | Print | Product List | Glossary On
Versions: 1 2 3 4 5 6 7 8 9 10 11 12 13 14 15 16 17 18 19 20 21 22 23 24 25 26 27 28 29 30 31 32 33 34 35 36 37 38 39 40 41 42 43 44 45 46 47 48 49 50
000
ASUS43 KFSD 301502
RWRSD

WEATHER ROUNDUP FOR SOUTH DAKOTA
NATIONAL WEATHER SERVICE SIOUX FALLS SD
1000 AM CDT SUN AUG 30 2015

NOTE: "FAIR" INDICATES FEW OR NO CLOUDS BELOW 12,000 FEET WITH NO
SIGNIFICANT WEATHER AND/OR OBSTRUCTIONS TO VISIBILITY.


SDZ001>005-009-010-012>017-301600-
NORTHWEST AND NORTH CENTRAL SOUTH DAKOTA

CITY           SKY/WX    TMP DP  RH WIND       PRES   REMARKS
FAITH            N/A     76  49  38 S18       29.76F
MOBRIDGE       MOSUNNY   74  61  63 SE16      29.76F
$$

SDZ012>016-024>037-041>051-057-063-072>074-301600-
SOUTHWEST AND SOUTH CENTRAL SOUTH DAKOTA

CITY           SKY/WX    TMP DP  RH WIND       PRES   REMARKS
RAPID CTY ARPT MOSUNNY   75  53  46 S10       29.83F
PIERRE         SUNNY     75  58  55 SE8       29.81F
CUSTER         MOSUNNY   80  43  26 W6        30.03S
ELLSWORTH AFB  MOSUNNY   75  52  44 S12       29.81F
PHILIP         SUNNY     79  52  38 S8        29.81F
PINE RIDGE     SUNNY     76  47  35 S13G22    29.90F
WINNER         FAIR      75  55  49 S18       29.89S
$$

SDZ004>011-016>023-039-040-301600-
NORTHEAST SOUTH DAKOTA

CITY           SKY/WX    TMP DP  RH WIND       PRES   REMARKS
ABERDEEN       MOSUNNY   69  64  84 S15       29.85S
WATERTOWN      SUNNY     68  63  84 S16       29.92S
BROOKINGS      CLOUDY    64  61  88 S13       29.98S
$$

SDZ017-020-022-023-036>040-048>070-301600-
SOUTHEAST SOUTH DAKOTA

CITY           SKY/WX    TMP DP  RH WIND       PRES   REMARKS
SIOUX FALLS    CLOUDY    64  62  93 S12       29.99S
HURON          SUNNY     67  63  87 S14       29.89S
CHAMBERLAIN    SUNNY     73  61  65 S5        29.88S
MITCHELL       SUNNY     69  65  86 S13       29.93S
YANKTON        PTSUNNY   66  64  94 SE12      29.97F
$$

ABBREVIATIONS USED IN REMARKS
   TC - TEMPERATURE IN CELSIUS
  WCI - WIND CHILL INDEX
   HX - HEAT INDEX
  VSB - VISIBILITY




USA.gov is the U.S. government's official web portal to all federal, state and local government web resources and services.